Epoch = 2012 July 12.0 TT T = 2012 June 26.48646 TT Peri. = 13.18023 e = 0.1885194 Node = 26.90806 2000.0 q = 2.5433515 AU Incl. = 1.10151 a = 3.1342109 AU n = 0.17762813 P = 5.55 years
m1 = 16.5 + 5 logΔ + 10.0 log r